Weather in Shkotovo

Russia / Primorsky Krai     43°19′27″N   132°21′23″E
temp.,
°C
wind,
m/s
gust,
m/s
humid.,
%
clouds,
%
prec.,
mm/h
press.,
hPa
HPBL,
m
9 march, tue
tue901:00−3sse237980 0.0 102450
04:00−1sse3108167 0.0 1023328
07:000sse41092100 0.0 1021333
10:00+2s6118895 0.0 1019624
13:00+3s7128598 0.0 1016629
16:00+3s597872 0.0 1013386
19:00+2nw3118467 0.2 1016789
22:00−1wnw4155450 0.3 10201107
10 march, wed
wed1001:00−1nw715580 0.0 10221156
04:00−2nnw614540 0.0 1025905
07:00−3nnw513580 0.0 1027680
10:00−1nnw611480 0.0 10291027
13:00+1nnw57390 0.0 1028984
16:00+3nne23380 0.0 1027583
19:00−1ssw235825 0.0 102637
22:00−2sse235748 0.0 1027104
11 march, thu
thu1101:00−1sse256796 0.0 1025184
04:00−1se228375 0.0 102430
07:00−2e119212 0.0 102421
10:00+2n11786 0.0 1026134
13:00+5n35511 0.0 1026632
16:00+6n47483 0.0 1026648
19:00+2n236586 0.0 102737
22:000n237393 0.0 102934
12 march, fri
fri1201:00−1nnw2270100 0.0 102941
04:00−2n237172 0.0 102961
07:00−2nnw227367 0.0 103050
10:00+1nnw235647 0.0 1031288
13:00+5nnw244139 0.0 1030427
16:00+6nw234331 0.0 1029461
19:00+2nw12570 0.0 102823
22:000nne12640 0.0 103022
13 march, sat
sat1301:000nne11650 0.0 102921
04:00−1e01660 0.0 102821
07:00−1se11650 0.0 102821
10:00+3sse11550 0.0 1027182
13:00+5s34550 0.0 1025380
16:00+5s366019 0.0 1022379
19:00+2s256513 0.0 1022218
22:00+1sse227332 0.0 102342